KY4EF Weather Reports


time (UTC)temp
C
wind
direction
speed
KPH
gust
KPH
rain 1hr
cm
rain 24hr
cm
rain mn
cm
humidity
%
barometer
mb
20260505124932 10 260 0.0 0.0 0.00 0.00 0.00 90 1014.6
20260505124429 9 260 0.0 0.0 0.00 0.00 0.00 94 1014.7
20260505123925 8 260 0.0 0.0 0.00 0.00 0.00 96 1014.7
20260505123422 8 260 0.0 0.0 0.00 0.00 0.00 98 1014.9
20260505122917 7 261 0.0 0.0 0.00 0.00 0.00 99 1014.7
20260505122415 7 260 0.0 0.0 0.00 0.00 0.00 99 1014.6
20260505121912 7 274 0.0 0.0 0.00 0.00 0.00 99 1014.6
20260505121409 6 274 0.0 0.0 0.00 0.00 0.00 99 1014.4
20260505120904 6 274 0.0 0.0 0.00 0.00 0.00 99 1014.6
20260505120401 6 328 0.0 0.0 0.00 0.00 0.00 99 1014.5
20260505115900 6 327 0.0 0.0 0.00 0.00 0.00 99 1014.5
20260505115357 6 327 0.0 0.0 0.00 0.00 0.00 99 1014.5
20260505114855 6 328 0.0 0.0 0.00 0.00 0.00 99 1014.4
20260505114351 6 327 0.0 0.0 0.00 0.00 0.00 99 1014.5
20260505113847 6 328 0.0 0.0 0.00 0.00 0.00 99 1014.2
20260505113344 6 327 0.0 0.0 0.00 0.00 0.00 99 1014.4
20260505112840 6 340 0.0 0.0 0.00 0.00 0.00 99 1014.1
20260505112337 6 340 0.0 0.0 0.00 0.00 0.00 99 1014.3
20260505111833 6 340 0.0 0.0 0.00 0.00 0.00 99 1014.0
20260505111329 5 323 0.0 0.0 0.00 0.00 0.00 99 1014.1
20260505110825 6 292 0.0 0.0 0.00 0.00 0.00 99 1013.6
20260505110322 5 292 0.0 0.0 0.00 0.00 0.00 99 1013.8
20260505101757 6 318 0.0 0.0 0.00 0.00 0.00 99 1014.0
20260505101252 6 311 0.0 0.0 0.00 0.00 0.00 99 1013.9
20260505100749 6 305 0.0 0.0 0.00 0.00 0.00 99 1013.8
20260505100245 6 314 0.0 0.0 0.00 0.00 0.00 99 1013.6
20260505095741 6 296 0.0 0.0 0.00 0.00 0.00 98 1013.8
20260505095239 6 296 0.0 0.0 0.00 0.00 0.00 98 1013.9
20260505094734 6 296 0.0 0.0 0.00 0.00 0.00 98 1013.9
20260505094231 7 292 1.6 1.6 0.00 0.00 0.00 98 1014.0
20260505093727 6 31 1.6 1.6 0.00 0.00 0.00 99 1013.9
20260505093225 6 316 0.0 0.0 0.00 0.00 0.00 98 1013.9
20260505092721 6 311 0.0 0.0 0.00 0.00 0.00 98 1014.0
20260505092221 7 307 0.0 0.0 0.00 0.00 0.00 98 1013.9
20260505091717 7 51 0.0 0.0 0.00 0.00 0.00 98 1013.9
20260505091215 7 304 0.0 0.0 0.00 0.00 0.00 98 1013.8
20260505090713 7 305 0.0 0.0 0.00 0.00 0.00 99 1014.0
20260505090211 6 306 0.0 0.0 0.00 0.00 0.00 98 1014.0
20260505085708 7 312 0.0 0.0 0.00 0.00 0.00 98 1013.8
20260505085206 7 289 0.0 0.0 0.00 0.00 0.00 98 1014.0
20260505084703 7 289 0.0 0.0 0.00 0.00 0.00 98 1013.6
20260505084202 7 289 0.0 0.0 0.00 0.00 0.00 98 1013.9
20260505083659 7 290 0.0 0.0 0.00 0.00 0.00 98 1013.9
20260505083155 7 290 0.0 0.0 0.00 0.00 0.00 97 1013.8
20260505082651 7 290 0.0 0.0 0.00 0.00 0.00 97 1013.9
20260505082148 7 291 0.0 1.6 0.00 0.00 0.00 97 1013.6
20260505081644 7 302 0.0 0.0 0.00 0.00 0.00 97 1013.9
20260505081142 7 303 0.0 0.0 0.00 0.00 0.00 97 1013.9
20260505080638 7 303 0.0 0.0 0.00 0.00 0.00 97 1013.8
20260505080134 7 302 0.0 0.0 0.00 0.00 0.00 96 1013.8
20260505075631 7 325 0.0 0.0 0.00 0.00 0.00 96 1013.6
20260505075127 7 313 0.0 0.0 0.00 0.00 0.00 97 1013.6
20260505074624 7 313 0.0 0.0 0.00 0.00 0.00 96 1013.9
20260505074121 7 310 0.0 0.0 0.00 0.00 0.00 95 1013.6
20260505073619 7 343 0.0 0.0 0.00 0.00 0.00 95 1013.6
20260505073117 8 315 0.0 0.0 0.00 0.00 0.00 95 1013.8
20260505072612 8 305 0.0 0.0 0.00 0.00 0.00 95 1013.6
20260505072109 8 322 0.0 0.0 0.00 0.00 0.00 94 1013.5
20260505071605 8 301 0.0 0.0 0.00 0.00 0.00 94 1013.5
20260505071103 8 338 0.0 0.0 0.00 0.00 0.00 95 1013.8
20260505070600 8 246 0.0 0.0 0.00 0.00 0.00 95 1013.6
20260505070056 8 246 0.0 0.0 0.00 0.00 0.00 95 1013.5
20260505065552 8 245 0.0 0.0 0.00 0.00 0.00 95 1013.6
20260505065049 8 282 0.0 0.0 0.00 0.00 0.00 94 1013.6
20260505064546 8 294 0.0 0.0 0.00 0.00 0.00 94 1013.4
20260505064044 8 304 0.0 0.0 0.00 0.00 0.00 93 1013.9
20260505063541 8 248 0.0 0.0 0.00 0.00 0.00 94 1013.5
20260505063037 8 246 0.0 1.6 0.00 0.00 0.00 94 1013.8
20260505062534 8 338 0.0 0.0 0.00 0.00 0.00 94 1013.6
20260505062031 8 298 0.0 0.0 0.00 0.00 0.00 94 1013.6
20260505061528 8 298 0.0 0.0 0.00 0.00 0.00 93 1013.4
20260505061026 8 297 0.0 0.0 0.00 0.00 0.00 93 1013.6
20260505060523 8 298 0.0 0.0 0.00 0.00 0.00 92 1013.6
20260505060020 8 269 0.0 0.0 0.00 0.00 0.00 93 1013.6
20260505055515 8 239 0.0 1.6 0.00 0.00 0.00 93 1013.6
20260505055012 8 258 0.0 0.0 0.00 0.00 0.00 93 1013.6
20260505054510 8 262 0.0 0.0 0.00 0.00 0.00 93 1013.6
20260505054008 9 257 0.0 0.0 0.00 0.00 0.00 92 1013.8
20260505053504 9 257 0.0 0.0 0.00 0.00 0.00 91 1013.8
20260505053001 10 203 0.0 0.0 0.00 0.00 0.00 91 1013.9
20260505052458 10 322 0.0 0.0 0.00 0.00 0.00 91 1013.6
20260505051955 9 291 0.0 1.6 0.00 0.00 0.00 91 1013.9
20260505051452 10 327 0.0 0.0 0.00 0.00 0.00 91 1013.8
20260505050951 10 319 0.0 0.0 0.00 0.00 0.00 90 1013.9
20260505050448 10 288 0.0 0.0 0.00 0.00 0.00 90 1013.6
20260505041416 11 8 0.0 0.0 0.00 0.00 0.00 85 1013.6
20260505040913 11 284 0.0 0.0 0.00 0.00 0.00 85 1013.9
20260505040411 11 296 0.0 0.0 0.00 0.00 0.00 86 1013.5
20260505035907 11 341 0.0 0.0 0.00 0.00 0.00 85 1013.6
20260505035403 11 289 0.0 0.0 0.00 0.00 0.00 86 1013.8
20260505034901 11 290 0.0 0.0 0.00 0.00 0.00 85 1013.9
20260505034357 11 237 0.0 0.0 0.00 0.00 0.00 84 1013.8
20260505033854 11 277 0.0 0.0 0.00 0.00 0.00 84 1013.9
20260505033351 11 304 0.0 0.0 0.00 0.00 0.00 83 1013.6
20260505032849 11 350 0.0 0.0 0.00 0.00 0.00 83 1013.9
20260505032345 11 294 0.0 0.0 0.00 0.00 0.00 82 1013.6
20260505031842 11 296 0.0 0.0 0.00 0.00 0.00 82 1013.8
20260505031339 12 258 0.0 0.0 0.00 0.00 0.00 81 1013.9
20260505030836 12 288 0.0 0.0 0.00 0.00 0.00 81 1013.9
20260505030332 12 116 0.0 0.0 0.00 0.00 0.00 79 1014.0
20260505025828 12 302 0.0 0.0 0.00 0.00 0.00 79 1013.9
20260505025326 12 302 0.0 0.0 0.00 0.00 0.00 78 1014.2
20260505024824 12 302 0.0 1.6 0.00 0.00 0.00 78 1013.9
20260505024321 12 302 0.0 0.0 0.00 0.00 0.00 78 1013.9
20260505023818 12 302 0.0 0.0 0.00 0.00 0.00 78 1014.2
20260505023315 13 302 0.0 0.0 0.00 0.00 0.00 76 1014.1
20260505022812 13 302 0.0 0.0 0.00 0.00 0.00 75 1014.2
20260505022309 13 302 0.0 0.0 0.00 0.00 0.00 75 1014.0
20260505021806 13 302 0.0 0.0 0.00 0.00 0.00 73 1014.1
20260505021303 13 302 0.0 0.0 0.00 0.00 0.00 73 1014.1
20260505020759 13 302 0.0 0.0 0.00 0.00 0.00 73 1014.0
20260505020254 13 304 0.0 0.0 0.00 0.00 0.00 73 1013.6
20260505015752 14 303 0.0 0.0 0.00 0.00 0.00 72 1013.8
20260505015248 14 308 0.0 0.0 0.00 0.00 0.00 71 1013.5
20260505014746 15 308 0.0 0.0 0.00 0.00 0.00 69 1013.6
20260505014243 15 296 0.0 0.0 0.00 0.00 0.00 66 1013.8
20260505013739 15 206 0.0 0.0 0.00 0.00 0.00 65 1013.6
20260505013237 15 284 0.0 0.0 0.00 0.00 0.00 67 1013.5
20260505012735 15 280 0.0 0.0 0.00 0.00 0.00 64 1013.6
20260505012232 15 109 0.0 0.0 0.00 0.00 0.00 65 1013.5
20260505011727 15 109 0.0 0.0 0.00 0.00 0.00 65 1013.2
20260505011225 16 279 0.0 0.0 0.00 0.00 0.00 64 1013.4
20260505010720 16 280 0.0 0.0 0.00 0.00 0.00 60 1013.1
20260505010217 16 278 0.0 0.0 0.00 0.00 0.00 61 1013.2
20260505005713 17 252 0.0 0.0 0.00 0.00 0.00 58 1013.1
20260505005211 17 251 0.0 0.0 0.00 0.00 0.00 56 1013.2
20260505004707 17 6 0.0 1.6 0.00 0.00 0.00 56 1013.0
20260505004204 17 148 0.0 0.0 0.00 0.00 0.00 53 1013.1
20260505003701 18 147 1.6 1.6 0.00 0.00 0.00 52 1012.9
20260505003159 18 147 1.6 3.2 0.00 0.00 0.00 51 1012.8
20260505002655 18 175 1.6 1.6 0.00 0.00 0.00 54 1012.8
20260505002153 18 175 1.6 1.6 0.00 0.00 0.00 50 1012.9
20260505001649 18 140 1.6 1.6 0.00 0.00 0.00 49 1012.7
20260505001147 18 193 0.0 0.0 0.00 0.00 0.00 50 1012.9
20260505000644 20 224 0.0 1.6 0.00 0.00 0.00 48 1012.7
20260505000142 20 225 0.0 0.0 0.00 0.00 0.00 46 1012.8
20260504235638 20 315 1.6 1.6 0.00 0.00 0.00 43 1012.7
20260504235135 21 249 0.0 0.0 0.00 0.00 0.00 45 1012.7
20260504234632 20 268 1.6 1.6 0.00 0.00 0.00 43 1012.7
20260504234129 21 227 0.0 0.0 0.00 0.00 0.00 47 1012.4
20260504233625 21 246 0.0 1.6 0.00 0.00 0.00 44 1012.4
20260504233121 21 283 1.6 3.2 0.00 0.00 0.00 42 1012.4
20260504232619 21 292 0.0 0.0 0.00 0.00 0.00 45 1012.3
20260504232116 22 263 0.0 1.6 0.00 0.00 0.00 44 1012.6
20260504231613 22 276 0.0 0.0 0.00 0.00 0.00 44 1012.4
20260504231108 22 208 1.6 1.6 0.00 0.00 0.00 44 1012.4
20260504230604 22 247 0.0 0.0 0.00 0.00 0.00 44 1012.3
20260504230059 22 271 0.0 0.0 0.00 0.00 0.00 43 1012.4
20260504225555 22 310 3.2 4.8 0.00 0.00 0.00 42 1012.2
20260504225052 23 294 0.0 0.0 0.00 0.00 0.00 43 1012.3
20260504224548 23 234 1.6 1.6 0.00 0.00 0.00 42 1012.3
20260504224046 22 317 0.0 1.6 0.00 0.00 0.00 42 1012.6
20260504223542 23 165 3.2 3.2 0.00 0.00 0.00 42 1012.5
20260504223038 23 325 1.6 1.6 0.00 0.00 0.00 39 1012.5
20260504222535 23 315 0.0 0.0 0.00 0.00 0.00 40 1012.5
20260504222032 23 254 3.2 4.8 0.00 0.00 0.00 38 1012.6
20260504221530 23 295 1.6 3.2 0.00 0.00 0.00 39 1012.5
20260504221027 23 312 3.2 3.2 0.00 0.00 0.00 38 1012.5
20260504220523 24 155 1.6 3.2 0.00 0.00 0.00 37 1012.5
20260504220020 25 229 1.6 1.6 0.00 0.00 0.00 37 1012.4
20260504215516 25 250 0.0 1.6 0.00 0.00 0.00 36 1012.4
20260504215014 25 311 1.6 1.6 0.00 0.00 0.00 37 1012.4
20260504214510 25 230 3.2 3.2 0.00 0.00 0.00 34 1012.4
20260504214006 25 280 1.6 1.6 0.00 0.00 0.00 36 1012.3
20260504213502 24 269 3.2 3.2 0.00 0.00 0.00 36 1012.4
20260504213000 24 188 3.2 3.2 0.00 0.00 0.00 36 1012.4
20260504212456 25 297 3.2 3.2 0.00 0.00 0.00 34 1012.4
20260504211953 25 276 3.2 4.8 0.00 0.00 0.00 35 1012.3
20260504211449 25 266 0.0 0.0 0.00 0.00 0.00 34 1012.4
20260504210947 25 265 0.0 1.6 0.00 0.00 0.00 32 1012.3
20260504210444 24 241 1.6 4.8 0.00 0.00 0.00 35 1012.5
20260504205942 24 232 1.6 1.6 0.00 0.00 0.00 39 1012.4
20260504205439 24 235 1.6 3.2 0.00 0.00 0.00 37 1012.4
20260504204937 25 302 0.0 1.6 0.00 0.00 0.00 39 1012.5
20260504204435 25 250 0.0 0.0 0.00 0.00 0.00 34 1012.6
20260504203934 23 226 1.6 1.6 0.00 0.00 0.00 36 1012.7
20260504203431 25 359 0.0 1.6 0.00 0.00 0.00 35 1012.7
20260504202927 25 268 0.0 0.0 0.00 0.00 0.00 35 1012.7
20260504202423 25 294 1.6 1.6 0.00 0.00 0.00 35 1012.9
20260504201920 25 207 1.6 1.6 0.00 0.00 0.00 37 1012.6
20260504201418 25 20 6.4 11.3 0.00 0.00 0.00 34 1012.7
20260504200915 25 246 0.0 0.0 0.00 0.00 0.00 36 1013.0
20260504200411 26 303 0.0 1.6 0.00 0.00 0.00 33 1012.6
20260504195908 25 159 6.4 6.4 0.00 0.00 0.00 37 1012.8
20260504195404 25 262 1.6 3.2 0.00 0.00 0.00 36 1012.8
20260504194901 27 36 1.6 3.2 0.00 0.00 0.00 31 1012.7
20260504194356 29 10 1.6 1.6 0.00 0.00 0.00 30 1012.9
20260504193852 29 287 0.0 0.0 0.00 0.00 0.00 31 1013.0
20260504193350 29 300 1.6 3.2 0.00 0.00 0.00 30 1013.0
20260504192849 27 295 0.0 0.0 0.00 0.00 0.00 33 1012.9
20260504192346 26 159 3.2 3.2 0.00 0.00 0.00 32 1013.1
20260504191844 25 256 0.0 0.0 0.00 0.00 0.00 31 1013.1
20260504191342 26 328 1.6 1.6 0.00 0.00 0.00 30 1013.1
20260504190837 25 183 3.2 3.2 0.00 0.00 0.00 34 1013.2
20260504190333 27 254 1.6 3.2 0.00 0.00 0.00 32 1013.3
20260504185830 27 245 1.6 3.2 0.00 0.00 0.00 31 1013.3
20260504185327 28 220 0.0 1.6 0.00 0.00 0.00 33 1013.6
20260504184823 27 265 0.0 1.6 0.00 0.00 0.00 33 1013.4
20260504184319 25 250 1.6 1.6 0.00 0.00 0.00 36 1013.5
20260504183815 26 359 3.2 6.4 0.00 0.00 0.00 37 1013.4
20260504183312 26 277 1.6 3.2 0.00 0.00 0.00 36 1013.8
20260504182810 27 186 1.6 1.6 0.00 0.00 0.00 37 1013.6
20260504182307 26 257 0.0 1.6 0.00 0.00 0.00 37 1013.9
20260504181804 24 315 1.6 3.2 0.00 0.00 0.00 38 1013.5
20260504181301 26 36 3.2 4.8 0.00 0.00 0.00 40 1014.0
20260504180801 28 274 0.0 0.0 0.00 0.00 0.00 34 1014.1
20260504180259 28 246 0.0 1.6 0.00 0.00 0.00 33 1013.9
20260504175756 27 289 0.0 1.6 0.00 0.00 0.00 33 1014.0
20260504175253 26 291 0.0 1.6 0.00 0.00 0.00 36 1013.8
20260504174751 26 297 1.6 1.6 0.00 0.00 0.00 37 1014.2
20260504174249 26 251 0.0 1.6 0.00 0.00 0.00 35 1014.0
20260504173745 26 300 1.6 1.6 0.00 0.00 0.00 38 1014.1
20260504173242 26 278 1.6 1.6 0.00 0.00 0.00 36 1014.4
20260504172738 25 266 0.0 1.6 0.00 0.00 0.00 37 1014.4
20260504172235 24 273 1.6 1.6 0.00 0.00 0.00 40 1014.5
20260504171731 23 295 0.0 1.6 0.00 0.00 0.00 38 1014.5
20260504171228 23 202 3.2 4.8 0.00 0.00 0.00 39 1014.6
20260504170725 23 173 0.0 1.6 0.00 0.00 0.00 41 1014.7
20260504170223 23 135 3.2 4.8 0.00 0.00 0.00 40 1014.9
20260504160141 23 163 0.0 1.6 0.00 0.00 0.00 40 1015.9
20260504151108 20 166 1.6 1.6 0.00 0.00 0.00 47 1016.6
20260504150607 20 86 1.6 1.6 0.00 0.00 0.00 47 1016.6
20260504150103 19 265 0.0 1.6 0.00 0.00 0.00 48 1016.6
20260504141032 14 318 0.0 0.0 0.00 0.00 0.00 62 1017.3
20260504140528 13 318 0.0 1.6 0.00 0.00 0.00 63 1017.2
20260504130453 7 97 0.0 0.0 0.00 0.00 0.00 87 1017.3